Latest Weather Observations for Geelong Racecourse

IDV60801

Issued at 3:35 pm EST Wednesday 23 July 2014 (issued every 30 minutes, with the page automatically refreshed every 10 minutes)

About weather observations | Map of weather stations | Latest weather observations for VIC | Other Formats
Station Details ID: 087184 Name: GEELONG RACECOURSE Lat: -38.17 Lon: 144.38 Height: 12.9 m
Data from the previous 72 hours. | See also: Recent months at Geelong Racecourse
Date/Time
EST
Temp
°C
App
Temp
°C
Dew
Point
Rel
Hum
%
Delta-T
°C
Wind Press
QNH
hPa
Press
MSL
hPa
Rain
since 9 am
mm
Dir
 
Spd
km/h
Gust
km/h
Spd
kts
Gust
kts
23/03:30pm 8.3 6.9 7.4 94 0.4 ENE 4 6 2 3 1019.4 - 0.0
23/03:00pm 7.6 6.9 6.9 95 0.3 NE 0 2 0 1 1019.6 1019.6 0.0
23/02:30pm 6.9 5.6 6.2 95 0.3 N 2 4 1 2 1020.0 - 0.0
23/02:00pm 6.4 4.7 5.7 95 0.3 N 4 6 2 3 1020.3 1020.3 0.0
23/01:30pm 6.2 4.0 5.5 95 0.3 N 6 9 3 5 1020.8 - 0.0
23/01:00pm 5.8 3.6 5.1 95 0.3 N 6 9 3 5 1021.4 1021.4 0.0
23/12:30pm 6.1 3.9 5.4 95 0.3 N 6 9 3 5 1021.8 - 0.0
23/12:00pm 5.9 3.7 5.2 95 0.3 NNE 6 9 3 5 1022.4 1022.4 0.0
23/11:30am 6.0 3.8 5.3 95 0.3 NE 6 7 3 4 1023.2 - 0.0
23/11:00am 6.0 3.8 5.3 95 0.3 NNE 6 9 3 5 1023.7 1023.7 0.0
23/10:30am 6.2 4.0 5.5 95 0.3 NNE 6 9 3 5 1024.0 - 0.0
23/10:00am 6.3 4.0 5.6 95 0.3 NNE 7 13 4 7 1024.1 1024.1 0.0
23/09:30am 6.4 4.1 5.7 95 0.3 NNE 7 11 4 6 1024.0 - 0.0
23/09:00am 6.8 4.2 6.1 95 0.3 NE 9 13 5 7 1023.9 1023.9 0.0
23/08:30am 6.9 4.9 6.2 95 0.3 NE 6 9 3 5 1023.8 - 0.0
23/08:00am 6.6 4.9 5.9 95 0.3 ENE 4 9 2 5 1023.9 1023.9 0.0
23/07:30am 6.4 5.0 5.7 95 0.3 ENE 2 9 1 5 1024.0 - 0.0
23/07:00am 5.9 4.8 5.2 95 0.3 CALM 0 4 0 2 1023.7 1023.7 0.0
23/06:30am 5.5 4.3 4.8 95 0.3 CALM 0 0 0 0 1023.7 - 0.0
23/06:00am 5.1 3.9 4.4 95 0.3 CALM 0 0 0 0 1023.6 1023.6 0.0
23/05:30am 4.7 3.4 4.0 95 0.3 CALM 0 0 0 0 1023.6 - 0.0
23/05:00am 4.3 2.9 3.4 94 0.4 CALM 0 0 0 0 1023.4 1023.4 0.0
23/04:30am 4.0 2.1 3.1 94 0.4 W 2 4 1 2 1023.6 - 0.0
23/04:00am 4.2 1.6 3.3 94 0.4 WNW 6 7 3 4 1023.7 1023.7 0.0
23/03:30am 4.3 2.1 3.4 94 0.4 N 4 4 2 2 1023.8 - 0.0
23/03:00am 2.9 0.8 2.0 94 0.3 WNW 2 6 1 3 1024.0 1024.0 0.0
23/02:30am 3.1 1.5 2.2 94 0.4 CALM 0 0 0 0 1023.9 - 0.0
23/02:00am 3.5 1.9 2.6 94 0.4 CALM 0 0 0 0 1024.0 1024.0 0.0
23/01:30am 3.3 1.7 2.4 94 0.4 CALM 0 0 0 0 1024.0 - 0.0
23/01:00am 3.6 2.0 2.7 94 0.4 CALM 0 0 0 0 1024.3 1024.3 0.0
23/12:30am 3.9 2.4 3.0 94 0.4 CALM 0 0 0 0 1024.5 - 0.0
23/12:00am 3.9 2.0 3.0 94 0.4 WNW 2 4 1 2 1024.8 1024.9 0.0
 
Date/Time
EST
Temp
°C
App
Temp
°C
Dew
Point
Rel
Hum
%
Delta-T
°C
Wind Press
QNH
hPa
Press
MSL
hPa
Rain
since 9 am
mm
Dir
 
Spd
km/h
Gust
km/h
Spd
kts
Gust
kts
22/11:30pm 4.1 1.9 3.2 94 0.4 WNW 4 4 2 2 1025.0 - 0.0
22/11:00pm 4.0 2.1 3.1 94 0.4 WNW 2 6 1 3 1025.1 1025.2 0.0
22/10:30pm 3.3 1.7 2.4 94 0.4 CALM 0 0 0 0 1025.1 - 0.0
22/10:00pm 3.9 2.4 3.0 94 0.4 CALM 0 0 0 0 1025.2 1025.3 0.0
22/09:30pm 4.3 2.9 3.4 94 0.4 CALM 0 0 0 0 1025.3 - 0.0
22/09:00pm 4.5 3.1 3.6 94 0.4 CALM 0 0 0 0 1025.3 1025.4 0.0
22/08:30pm 4.8 3.5 3.9 94 0.4 CALM 0 0 0 0 1025.1 - 0.0
22/08:00pm 5.1 3.8 4.2 94 0.4 CALM 0 0 0 0 1024.9 1025.0 0.0
22/07:30pm 5.0 2.9 4.0 93 0.4 S 4 4 2 2 1024.8 - 0.0
22/07:00pm 6.3 5.2 5.3 93 0.4 CALM 0 0 0 0 1024.7 1024.8 0.0
22/06:30pm 6.9 5.6 5.8 93 0.5 E 2 2 1 1 1024.6 - 0.0
22/06:00pm 7.9 6.8 6.8 93 0.5 E 2 4 1 2 1024.4 1024.4 0.0
22/05:30pm 8.7 7.4 7.5 92 0.6 NE 4 7 2 4 1024.5 - 0.0
22/05:00pm 9.3 7.4 6.9 85 1.1 NE 6 7 3 4 1024.4 1024.4 0.0
22/04:30pm 10.1 7.9 6.4 78 1.7 NE 7 11 4 6 1024.4 - 0.0
22/04:00pm 10.7 8.6 6.6 76 1.9 NE 7 11 4 6 1024.5 1024.5 0.0
22/03:30pm 11.0 8.9 6.7 75 2.0 NE 7 9 4 5 1024.6 - 0.0
22/03:00pm 11.2 9.4 7.9 80 1.6 NE 7 9 4 5 1024.6 1024.6 0.0
22/02:30pm 10.8 9.1 8.4 85 1.2 NNE 7 11 4 6 1024.7 - 0.0
22/02:00pm 10.5 8.9 8.9 90 0.8 NE 7 9 4 5 1024.9 1025.0 0.0
22/01:30pm 10.0 8.0 8.8 92 0.6 NE 9 13 5 7 1025.2 - 0.0
22/01:00pm 9.8 7.7 8.4 91 0.7 NNE 9 11 5 6 1025.4 1025.5 0.0
22/12:30pm 10.8 9.2 8.0 83 1.4 NNE 6 9 3 5 1026.1 - 0.0
22/12:00pm 9.9 8.3 7.8 87 1.0 N 6 9 3 5 1026.5 1026.6 0.0
22/11:30am 9.2 7.4 8.1 93 0.5 N 7 13 4 7 1026.8 - 0.0
22/11:00am 8.0 5.6 7.1 94 0.4 NNW 9 13 5 7 1027.1 1027.2 0.0
22/10:30am 6.5 3.8 5.8 95 0.3 NNW 9 13 5 7 1027.2 - 0.0
22/10:00am 5.1 2.2 4.4 95 0.3 NNW 9 13 5 7 1027.3 1027.4 0.0
22/09:30am 3.8 -0.2 3.1 95 0.3 NW 13 15 7 8 1027.2 - 0.0
22/09:00am 3.4 -0.2 2.7 95 0.3 NW 11 15 6 8 1026.9 1027.0 0.0
22/08:30am 2.3 -0.2 1.6 95 0.3 NNW 4 6 2 3 1026.6 - 0.0
22/08:00am 1.0 -1.3 0.1 94 0.3 NNW 2 4 1 2 1026.4 1026.5 0.0
22/07:30am 1.0 -1.3 0.1 94 0.3 NW 2 6 1 3 1026.3 - 0.0
22/07:00am 1.3 -0.6 0.4 94 0.3 CALM 0 4 0 2 1025.6 1025.7 0.0
22/06:30am 1.2 -2.1 0.3 94 0.3 WNW 7 9 4 5 1025.6 - 0.0
22/06:00am 1.5 -0.8 0.6 94 0.3 NW 2 2 1 1 1025.1 1025.2 0.0
22/05:30am 1.8 -0.8 0.9 94 0.3 NW 4 6 2 3 1025.2 - 0.0
22/05:00am 1.9 -0.3 1.0 94 0.3 NW 2 4 1 2 1024.9 1025.0 0.0
22/04:30am 2.2 -0.3 1.3 94 0.3 NW 4 6 2 3 1024.9 - 0.0
22/04:00am 2.0 0.2 1.1 94 0.3 CALM 0 2 0 1 1024.8 1024.9 0.0
22/03:30am 2.7 0.6 1.8 94 0.3 W 2 4 1 2 1024.7 - 0.0
22/03:00am 3.0 0.2 2.1 94 0.4 NW 6 7 3 4 1024.9 1025.0 0.0
22/02:30am 3.2 1.6 2.3 94 0.4 CALM 0 0 0 0 1024.9 - 0.0
22/02:00am 3.6 2.0 2.7 94 0.4 CALM 0 0 0 0 1024.8 1024.9 0.0
22/01:30am 3.9 1.6 3.0 94 0.4 WNW 4 4 2 2 1025.0 - 0.0
22/01:00am 4.0 1.4 3.1 94 0.4 NW 6 7 3 4 1025.2 1025.3 0.0
22/12:30am 3.4 1.1 2.5 94 0.4 WNW 4 6 2 3 1025.4 - 0.0
22/12:00am 4.0 2.5 3.1 94 0.4 CALM 0 4 0 2 1025.5 1025.6 0.0
 
Date/Time
EST
Temp
°C
App
Temp
°C
Dew
Point
Rel
Hum
%
Delta-T
°C
Wind Press
QNH
hPa
Press
MSL
hPa
Rain
since 9 am
mm
Dir
 
Spd
km/h
Gust
km/h
Spd
kts
Gust
kts
21/11:30pm 4.0 2.5 3.1 94 0.4 CALM 0 0 0 0 1025.7 - 0.0
21/11:00pm 4.0 2.1 3.1 94 0.4 SW 2 2 1 1 1025.8 1025.9 0.0
21/10:30pm 4.0 1.8 3.1 94 0.4 SW 4 6 2 3 1025.8 - 0.0
21/10:00pm 4.3 2.9 3.4 94 0.4 CALM 0 0 0 0 1025.7 1025.8 0.0
21/09:30pm 5.2 3.9 4.3 94 0.4 CALM 0 0 0 0 1025.5 - 0.0
21/09:00pm 5.4 4.2 4.5 94 0.4 CALM 0 0 0 0 1025.3 1025.4 0.0
21/08:30pm 6.1 5.0 5.2 94 0.4 CALM 0 0 0 0 1025.2 - 0.0
21/08:00pm 6.6 5.6 5.7 94 0.4 CALM 0 0 0 0 1025.1 1025.2 0.0
21/07:30pm 7.2 6.3 6.1 93 0.5 CALM 0 0 0 0 1025.0 - 0.0
21/07:00pm 7.3 6.4 6.2 93 0.5 CALM 0 0 0 0 1025.0 1025.1 0.0
21/06:30pm 8.4 7.8 7.3 93 0.5 CALM 0 0 0 0 1024.9 - 0.0
21/06:00pm 9.1 7.9 8.0 93 0.5 ENE 4 4 2 2 1024.7 1024.8 0.0
21/05:30pm 9.6 8.1 8.4 92 0.6 NE 6 7 3 4 1024.6 - 0.0
21/05:00pm 10.4 8.9 8.5 88 0.9 NE 6 7 3 4 1024.5 1024.5 0.0
21/04:30pm 11.4 10.1 7.7 78 1.8 NNE 4 4 2 2 1024.5 - 0.0
21/04:00pm 12.0 10.4 6.5 69 2.6 NE 4 6 2 3 1024.5 1024.5 0.0
21/03:30pm 12.0 10.6 7.1 72 2.4 E 4 7 2 4 1024.4 - 0.0
21/03:00pm 12.1 10.8 7.6 74 2.2 ENE 4 6 2 3 1024.3 1024.3 0.0
21/02:30pm 12.0 10.3 7.5 74 2.2 NNE 6 7 3 4 1024.3 - 0.0
21/02:00pm 12.3 10.8 8.6 78 1.8 NNE 6 7 3 4 1024.4 1024.4 0.0
21/01:30pm 11.8 10.3 8.5 80 1.6 NNE 6 9 3 5 1024.7 - 0.0
21/01:00pm 11.3 10.3 8.9 85 1.2 NNE 4 7 2 4 1025.0 1025.1 0.0
21/12:30pm 10.3 8.7 8.7 90 0.8 NE 7 9 4 5 1025.5 - 0.0
21/12:00pm 9.9 8.5 8.7 92 0.6 NE 6 7 3 4 1025.8 1025.9 0.0
21/11:30am 10.3 9.0 9.1 92 0.6 NE 6 7 3 4 1026.2 - 0.0
21/11:00am 10.2 10.0 9.1 93 0.5 CALM 0 4 0 2 1026.4 1026.5 0.0
21/10:30am 8.6 7.3 7.7 94 0.4 NW 4 6 2 3 1026.5 - 0.0
21/10:00am 7.6 6.5 6.7 94 0.4 WNW 2 4 1 2 1026.4 1026.5 0.0
21/09:30am 6.5 5.1 5.6 94 0.4 WNW 2 4 1 2 1026.5 - 0.0
21/09:00am 5.5 3.9 4.6 94 0.4 WNW 2 4 1 2 1026.4 1026.5 0.0
21/08:30am 4.7 3.3 3.8 94 0.4 CALM 0 0 0 0 1026.3 - 0.0
21/08:00am 4.5 3.1 3.6 94 0.4 CALM 0 0 0 0 1026.3 1026.4 0.0
21/07:30am 4.5 3.1 3.6 94 0.4 CALM 0 0 0 0 1026.3 - 0.0
21/07:00am 4.6 3.2 3.7 94 0.4 CALM 0 0 0 0 1026.1 1026.2 0.0
21/06:30am 4.6 3.2 3.7 94 0.4 CALM 0 0 0 0 1026.0 - 0.0
21/06:00am 5.1 3.8 4.2 94 0.4 CALM 0 0 0 0 1025.8 1025.9 0.0
21/05:30am 5.1 3.4 4.2 94 0.4 WNW 2 2 1 1 1025.7 - 0.0
21/05:00am 5.5 3.9 4.6 94 0.4 NW 2 4 1 2 1025.6 1025.7 0.0
21/04:30am 5.7 3.8 4.8 94 0.4 NW 4 4 2 2 1025.7 - 0.0
21/04:00am 5.9 3.6 5.0 94 0.4 WNW 6 7 3 4 1025.8 1025.9 0.0
21/03:30am 6.1 3.9 5.2 94 0.4 NW 6 7 3 4 1026.0 - 0.0
21/03:00am 6.1 3.9 5.2 94 0.4 NW 6 9 3 5 1026.1 1026.2 0.0
21/02:30am 6.0 3.6 5.1 94 0.4 NW 7 9 4 5 1026.1 - 0.0
21/02:00am 5.7 4.2 4.8 94 0.4 NW 2 4 1 2 1026.1 1026.2 0.0
21/01:30am 5.8 3.9 4.9 94 0.4 WNW 4 6 2 3 1026.1 - 0.0
21/01:00am 6.2 5.1 5.3 94 0.4 CALM 0 0 0 0 1026.2 1026.3 0.0
21/12:30am 6.4 5.4 5.5 94 0.4 CALM 0 0 0 0 1026.3 - 0.0
21/12:00am 6.5 5.5 5.6 94 0.4 CALM 0 0 0 0 1026.4 1026.5 0.0
 
Date/Time
EST
Temp
°C
App
Temp
°C
Dew
Point
Rel
Hum
%
Delta-T
°C
Wind Press
QNH
hPa
Press
MSL
hPa
Rain
since 9 am
mm
Dir
 
Spd
km/h
Gust
km/h
Spd
kts
Gust
kts
20/11:30pm 6.5 5.5 5.6 94 0.4 CALM 0 0 0 0 1026.8 - 0.0
20/11:00pm 7.5 6.0 6.6 94 0.4 NE 4 4 2 2 1027.0 1027.1 0.0
20/10:30pm 7.3 6.5 6.4 94 0.4 CALM 0 0 0 0 1027.0 - 0.0
20/10:00pm 7.6 6.8 6.7 94 0.4 CALM 0 0 0 0 1027.0 1027.1 0.0
20/09:30pm 7.7 7.0 6.8 94 0.4 CALM 0 0 0 0 1027.0 - 0.0
20/09:00pm 8.2 7.5 7.1 93 0.5 CALM 0 0 0 0 1026.9 1027.0 0.0
20/08:30pm 8.4 7.8 7.3 93 0.5 CALM 0 0 0 0 1026.9 - 0.0
20/08:00pm 9.5 8.8 8.4 93 0.5 NE 2 4 1 2 1026.9 1027.0 0.0
20/07:30pm 9.7 9.4 8.6 93 0.5 CALM 0 2 0 1 1027.0 - 0.0
20/07:00pm 9.9 9.3 8.8 93 0.5 NE 2 4 1 2 1026.9 1027.0 0.0
20/06:30pm 10.1 9.5 8.9 92 0.6 ENE 2 4 1 2 1026.8 - 0.0
20/06:00pm 10.1 9.8 8.7 91 0.7 CALM 0 2 0 1 1026.5 1026.6 0.0
20/05:30pm 11.1 10.6 9.4 89 0.9 S 2 2 1 1 1026.5 - 0.0
20/05:00pm 11.7 10.7 8.9 83 1.4 SSE 4 4 2 2 1026.5 1026.6 0.0
20/04:30pm 11.9 11.2 8.4 79 1.7 ESE 2 4 1 2 1026.5 - 0.0
20/04:00pm 11.8 10.6 8.1 78 1.8 SE 4 7 2 4 1026.6 1026.7 0.0

Other Formats:

Comma delimited format used in spreadsheet applications
http://www.bom.gov.au/fwo/IDV60801/IDV60801.94857.axf

JavaScript Object Notation format (JSON) in row-major order
http://www.bom.gov.au/fwo/IDV60801/IDV60801.94857.json